, AK

(GMT )
Selawik

Weather History for PASK - March, 2013

Change the Weather History Date:

Friday, March 15, 2013

  Actual Average Record
Temperature  
Mean Temperature 6 °F -  
Max Temperature 12 °F 6 °F 33 °F (1999)
Min Temperature 1 °F -4 °F -34 °F (2003)
Degree Days  
Heating Degree Days 58    
Moisture  
Dew Point -1 °F    
Average Humidity 68    
Maximum Humidity 79    
Minimum Humidity 56    
Precipitation  
Precipitation 0.00 in - - ()
Sea Level Pressure  
Sea Level Pressure 30.07 in    
Wind  
Wind Speed 20 mph (ENE)    
Max Wind Speed 30 mph    
Max Gust Speed 30 mph    
Visibility 10 miles    
Events      
Averages and records for this station are not official NWS values.
T = Trace of Precipitation, MM = Missing Value Source: NWS Daily Summary

Daily Weather History Graph

Daily Weather History Graph

Search for Another Location

Airport or City:

Trip Planner

Search our weather history database for the weather conditions in past years. The results will help you decide how hot, cold, wet, or windy it might be!

Date:

Astronomy

Mar. 15, 2013 Rise Set
Actual Time 8:57 AM AKDT 8:41 PM AKDT
Civil Twilight 8:05 AM AKDT 9:33 PM AKDT
Nautical Twilight 7:02 AM AKDT 10:37 PM AKDT
Astronomical Twilight 5:50 AM AKDT 11:50 PM AKDT
Moon 8:58 AM AKDT (3/15) 1:58 AM AKDT (3/15)
Length of Visible Light 13h 28m
Length of Day
11h 43m
Waxing Crescent, 16% of the Moon is Illuminated
Mar 15
Waxing Crescent
Mar 19
First Quarter
Mar 27
Full
Apr 2
Last Quarter
Apr 10
New

Hourly Weather History & Observations

Time (AKDT) Temp. Windchill Dew Point Humidity Pressure Visibility Wind Dir Wind Speed Gust Speed Precip Events Conditions
12:16 AM 3.2 °F -14.6 °F -5.8 °F 66% 30.24 in 10.0 mi East 13.8 mph - N/A   Clear
12:36 AM 3.2 °F -17.6 °F -5.8 °F 66% 30.24 in 10.0 mi East 19.6 mph - N/A   Clear
12:56 AM 3.2 °F -13.9 °F -2.2 °F 78% 30.25 in 10.0 mi ENE 12.7 mph - N/A   Clear
1:16 AM 3.2 °F -17.1 °F -7.6 °F 61% 30.23 in 10.0 mi ENE 18.4 mph - N/A   Clear
1:36 AM 6.8 °F -14.7 °F -0.4 °F 72% 30.22 in 10.0 mi ENE 24.2 mph - N/A   Clear
1:56 AM 6.8 °F -15.9 °F -2.2 °F 67% 30.21 in 9.0 mi ENE 27.6 mph - N/A   Clear
2:16 AM 6.8 °F -16.6 °F -0.4 °F 72% 30.20 in 6.0 mi ENE 29.9 mph - N/A   Clear
2:36 AM 6.8 °F -15.9 °F -2.2 °F 67% 30.20 in 5.0 mi ENE 27.6 mph - N/A   Clear
2:56 AM 6.8 °F -14.7 °F -2.2 °F 67% 30.20 in 9.0 mi ENE 24.2 mph - N/A   Clear
3:16 AM 5.0 °F -18.3 °F -5.8 °F 61% 30.17 in 7.0 mi ENE 27.6 mph - N/A   Clear
3:36 AM 6.8 °F -16.2 °F -0.4 °F 72% 30.17 in 7.0 mi East 28.8 mph - N/A   Clear
3:56 AM 6.8 °F -15.5 °F -2.2 °F 67% 30.16 in 4.0 mi ENE 26.5 mph - N/A   Clear
4:36 AM 6.8 °F -12.4 °F -4.0 °F 61% 30.17 in 10.0 mi ENE 18.4 mph - N/A   Clear
4:56 AM 6.8 °F -13.4 °F -2.2 °F 67% 30.16 in 10.0 mi ENE 20.7 mph - N/A   Clear
5:16 AM 6.8 °F -15.1 °F -4.0 °F 61% 30.14 in 10.0 mi ENE 25.3 mph - N/A   Clear
5:36 AM 6.8 °F -15.1 °F -2.2 °F 67% 30.14 in 7.0 mi East 25.3 mph - N/A   Clear
5:56 AM 6.8 °F -15.1 °F -0.4 °F 72% 30.14 in 6.0 mi East 25.3 mph - N/A   Clear
6:16 AM 6.8 °F -12.9 °F -2.2 °F 67% 30.14 in 10.0 mi ENE 19.6 mph - N/A   Clear
6:36 AM 5.0 °F -15.2 °F -2.2 °F 72% 30.14 in 10.0 mi East 19.6 mph - N/A   Clear
6:56 AM 6.8 °F -11.3 °F -5.8 °F 56% 30.14 in 10.0 mi ENE 16.1 mph - N/A   Clear
7:16 AM 5.0 °F -13.0 °F -5.8 °F 61% 30.15 in 10.0 mi ENE 15.0 mph - N/A   Clear
7:36 AM 3.2 °F -18.6 °F -7.6 °F 61% 30.14 in 10.0 mi ENE 21.9 mph 27.6 mph N/A   Clear
7:56 AM 5.0 °F -15.2 °F -2.2 °F 72% 30.12 in 10.0 mi ENE 19.6 mph - N/A   Clear
8:16 AM 5.0 °F -15.7 °F -4.0 °F 66% 30.12 in 10.0 mi ENE 20.7 mph - N/A   Clear
8:36 AM 5.0 °F -17.5 °F -4.0 °F 66% 30.10 in 10.0 mi East 25.3 mph - N/A   Clear
8:56 AM 6.8 °F -14.7 °F -2.2 °F 67% 30.11 in 9.0 mi East 24.2 mph - N/A   Clear
9:16 AM 5.0 °F -16.7 °F -2.2 °F 72% 30.10 in 9.0 mi East 23.0 mph - N/A   Clear
9:36 AM 5.0 °F -16.7 °F -2.2 °F 72% 30.09 in 10.0 mi East 23.0 mph - N/A   Clear
9:56 AM 6.8 °F -14.7 °F -2.2 °F 67% 30.09 in 9.0 mi East 24.2 mph - N/A   Clear
10:16 AM 6.8 °F -14.7 °F -2.2 °F 67% 30.08 in 8.0 mi East 24.2 mph 29.9 mph N/A   Clear
10:36 AM 6.8 °F -13.8 °F -2.2 °F 67% 30.08 in 10.0 mi East 21.9 mph - N/A   Clear
10:56 AM 6.8 °F -12.4 °F -2.2 °F 67% 30.08 in 10.0 mi ENE 18.4 mph - N/A   Clear
11:16 AM 6.8 °F -11.3 °F -0.4 °F 72% 30.09 in 10.0 mi ENE 16.1 mph - N/A   Clear
11:36 AM 6.8 °F -10.0 °F -0.4 °F 72% 30.09 in 10.0 mi East 13.8 mph - N/A   Clear
11:56 AM 6.8 °F -12.9 °F -2.2 °F 67% 30.08 in 10.0 mi East 19.6 mph - N/A   Clear
12:16 PM 8.6 °F -10.5 °F 1.4 °F 73% 30.08 in 10.0 mi East 19.6 mph - N/A   Clear
12:36 PM 8.6 °F -10.0 °F -0.4 °F 67% 30.07 in 10.0 mi East 18.4 mph - N/A   Clear
12:56 PM 8.6 °F -10.5 °F 1.4 °F 73% 30.06 in 10.0 mi East 19.6 mph - N/A   Clear
1:16 PM 8.6 °F -11.9 °F -0.4 °F 67% 30.05 in 10.0 mi East 23.0 mph - N/A   Clear
1:36 PM 8.6 °F -11.0 °F 1.4 °F 73% 30.04 in 10.0 mi East 20.7 mph - N/A   Clear
1:56 PM 10.4 °F -7.7 °F 3.2 °F 73% 30.05 in 10.0 mi East 18.4 mph - N/A   Clear
2:16 PM 10.4 °F -5.4 °F 1.4 °F 67% 30.04 in 10.0 mi East 13.8 mph - N/A   Clear
2:36 PM 10.4 °F -6.0 °F 1.4 °F 67% 30.04 in 10.0 mi East 15.0 mph - N/A   Clear
2:56 PM 10.4 °F -7.7 °F 1.4 °F 67% 30.03 in 10.0 mi East 18.4 mph - N/A   Clear
3:16 PM 10.4 °F -8.2 °F 1.4 °F 67% 30.01 in 10.0 mi East 19.6 mph - N/A   Clear
3:36 PM 10.4 °F -8.2 °F 3.2 °F 73% 30.00 in 10.0 mi East 19.6 mph - N/A   Clear
3:56 PM 12.2 °F -5.3 °F 3.2 °F 67% 30.00 in 10.0 mi East 18.4 mph - N/A   Clear
4:16 PM 12.2 °F -3.7 °F 3.2 °F 67% 30.00 in 10.0 mi East 15.0 mph - N/A   Clear
4:36 PM 12.2 °F -5.3 °F 3.2 °F 67% 29.98 in 10.0 mi East 18.4 mph - N/A   Clear
4:56 PM 12.2 °F -4.8 °F 3.2 °F 67% 29.98 in 10.0 mi East 17.3 mph - N/A   Clear
5:16 PM 12.2 °F -5.3 °F 3.2 °F 67% 29.97 in 10.0 mi East 18.4 mph - N/A   Clear
5:36 PM 12.2 °F -2.5 °F 5.0 °F 73% 29.97 in 10.0 mi East 12.7 mph - N/A   Clear
5:56 PM 12.2 °F -3.7 °F 1.4 °F 62% 29.96 in 10.0 mi ENE 15.0 mph - N/A   Clear
6:16 PM 12.2 °F -4.3 °F 3.2 °F 67% 29.96 in 10.0 mi ENE 16.1 mph - N/A   Clear
6:36 PM 10.4 °F -5.4 °F 3.2 °F 73% 29.96 in 10.0 mi East 13.8 mph - N/A   Clear
6:56 PM 10.4 °F -8.2 °F -0.4 °F 62% 29.94 in 10.0 mi East 19.6 mph - N/A   Clear
7:16 PM 10.4 °F -6.0 °F 3.2 °F 73% 29.95 in 10.0 mi ENE 15.0 mph - N/A   Clear
7:36 PM 10.4 °F -6.6 °F 1.4 °F 67% 29.94 in 10.0 mi ENE 16.1 mph - N/A   Clear
7:56 PM 10.4 °F -9.5 °F 1.4 °F 67% 29.93 in 10.0 mi East 23.0 mph - N/A   Clear
8:16 PM 8.6 °F -10.5 °F 1.4 °F 73% 29.93 in 10.0 mi East 19.6 mph - N/A   Clear
8:36 PM 6.8 °F -11.3 °F 1.4 °F 79% 29.94 in 10.0 mi East 16.1 mph - N/A   Clear
9:56 PM 6.8 °F -8.6 °F -2.2 °F 67% 29.95 in 10.0 mi ENE 11.5 mph - N/A   Clear
10:16 PM 3.2 °F -15.9 °F -4.0 °F 72% 29.95 in 10.0 mi East 16.1 mph - N/A   Clear
10:36 PM 3.2 °F -15.3 °F -2.2 °F 78% 29.95 in 10.0 mi East 15.0 mph - N/A   Clear
10:56 PM 3.2 °F -15.9 °F -5.8 °F 66% 29.95 in 10.0 mi East 16.1 mph - N/A   Clear
11:16 PM 1.4 °F -15.3 °F -5.8 °F 72% 29.97 in 10.0 mi ENE 11.5 mph - N/A   Clear
11:36 PM 3.2 °F -14.6 °F -5.8 °F 66% 29.97 in 10.0 mi ENE 13.8 mph - N/A   Clear
11:56 PM 1.4 °F -18.2 °F -7.6 °F 66% 29.98 in 10.0 mi East 16.1 mph - N/A   Clear